Date String (YYYY-MM-DD hh:mm:ss) UTC,Instrument flags,absolute air pressure of the measurement (hPa),sample flow rate (lpm),inlet stack bypass flow (lpm),air temperature of the measurement (°C),ambient temperature measured by the external sensor (°C),aerosol sample conditioner tube jacket temperature (°C),OPC LED temperature (°C),internal box temperature (°C),relative humidity of the measurement (%),span deviation,mass concentration of particles derived from Lorenz-Mie calculation of OPC scattering (μg/m³),mass concentration of particles derived from Lorenz-Mie calculation of OPC scattering (μg/m³),mass concentration of particles derived from Lorenz-Mie calculation of OPC scattering (μg/m³)
DateTimeUTC,F1_M11,P_M11,Q1_M11,Q2_M11,T1_M11,T2_M11,T3_M11,T4_M11,T5_M11,U1_M11,ZSPAN_M11,X0_M11,X2_M11,X1_M11
2024-03-28 05:00:00,SystemResetWarning,0827.4,4.99,000.00,018.2,017.1,000.0,027.0,020.0,13.2,0000.0,0005.74,0001.66,0001.14
2024-03-28 05:01:00,SystemResetWarning,0827.6,4.99,000.00,018.2,017.1,000.0,027.0,020.0,12.9,0000.0,0005.71,0001.64,0001.13
2024-03-28 05:02:00,SystemResetWarning,0827.4,5.00,000.00,018.2,017.1,000.0,027.0,020.0,12.9,0000.0,0005.60,0001.59,0001.12
2024-03-28 05:03:00,SystemResetWarning,0827.5,5.01,000.00,018.2,017.1,000.0,027.0,020.0,13.0,0000.0,0005.52,0001.57,0001.11
2024-03-28 05:04:00,SystemResetWarning,0827.5,4.98,000.00,018.2,017.1,000.0,027.0,020.0,13.1,0000.0,0005.92,0001.57,0001.11
2024-03-28 05:05:00,SystemResetWarning,0827.6,4.99,000.00,018.2,017.1,000.0,027.0,020.0,13.1,0000.0,0005.97,0001.58,0001.12
2024-03-28 05:06:00,SystemResetWarning,0827.5,5.00,000.00,018.2,017.1,000.0,027.0,020.0,13.1,0000.0,0006.01,0001.58,0001.12
2024-03-28 05:07:00,SystemResetWarning,0827.5,5.01,000.00,018.2,017.1,000.0,027.0,020.0,13.2,0000.0,0005.84,0001.60,0001.12
2024-03-28 05:08:00,SystemResetWarning,0827.4,5.01,000.00,018.2,017.1,000.0,027.0,020.0,13.3,0000.0,0005.92,0001.60,0001.11
2024-03-28 05:09:00,SystemResetWarning,0827.5,5.00,000.00,018.2,017.1,000.0,027.0,020.0,13.0,0000.0,0004.97,0001.61,0001.10
2024-03-28 05:10:00,SystemResetWarning,0827.5,5.00,000.00,018.2,017.0,000.0,027.0,020.0,13.1,0000.0,0005.22,0001.62,0001.10
2024-03-28 05:11:00,SystemResetWarning,0827.5,4.99,000.00,018.2,017.0,000.0,027.0,020.0,13.5,0000.0,0004.48,0001.61,0001.10
2024-03-28 05:12:00,SystemResetWarning,0827.6,4.99,000.00,018.2,017.1,000.0,027.0,020.0,13.5,0000.0,0004.61,0001.66,0001.10
2024-03-28 05:13:00,SystemResetWarning,0827.5,5.00,000.00,018.2,017.1,000.0,027.0,020.0,13.4,0000.0,0004.72,0001.69,0001.11
2024-03-28 05:14:00,SystemResetWarning,0827.5,5.00,000.00,018.2,017.1,000.0,027.0,020.0,13.2,0000.0,0004.71,0001.69,0001.12
2024-03-28 05:15:00,SystemResetWarning,0827.5,5.00,000.00,018.2,017.1,000.0,027.0,020.0,13.1,0000.0,0004.45,0001.66,0001.12
2024-03-28 05:16:00,SystemResetWarning,0827.5,5.00,000.00,018.2,017.0,000.0,027.0,020.0,13.0,0000.0,0004.91,0001.70,0001.13
2024-03-28 05:17:00,SystemResetWarning,0827.6,5.00,000.00,018.2,017.1,000.0,027.0,020.0,13.0,0000.0,0004.80,0001.69,0001.14
2024-03-28 05:18:00,SystemResetWarning,0827.6,5.00,000.00,018.2,017.6,000.0,027.0,020.2,12.9,0000.0,0004.67,0001.69,0001.14
2024-03-28 05:19:00,SystemResetWarning,0827.6,5.00,000.00,018.5,018.5,000.0,027.1,020.8,13.0,0000.0,0004.49,0001.65,0001.15
2024-03-28 05:20:00,SystemResetWarning,0827.7,5.00,000.00,018.7,019.2,000.0,027.1,021.1,12.8,0000.0,0004.47,0001.65,0001.16
2024-03-28 05:21:00,SystemResetWarning,0827.6,5.00,000.00,018.8,019.0,000.0,027.1,020.9,13.0,0000.0,0003.97,0001.63,0001.17
2024-03-28 05:22:00,SystemResetWarning,0827.6,4.98,000.00,018.8,018.7,000.0,027.1,020.7,12.9,0000.0,0003.51,0001.61,0001.17
2024-03-28 05:23:00,SystemResetWarning,0827.7,5.00,000.00,018.7,018.4,000.0,027.1,020.5,12.9,0000.0,0003.08,0001.56,0001.18
2024-03-28 05:24:00,SystemResetWarning,0827.5,5.00,000.00,018.7,018.2,000.0,027.0,020.4,12.9,0000.0,0002.99,0001.55,0001.18
2024-03-28 05:25:00,SystemResetWarning,0827.4,5.00,000.00,018.6,018.0,000.0,027.0,020.3,12.8,0000.0,0002.97,0001.54,0001.19
2024-03-28 05:26:00,SystemResetWarning,0827.4,5.01,000.00,018.6,017.9,000.0,027.0,020.2,12.8,0000.0,0002.93,0001.57,0001.19
2024-03-28 05:27:00,SystemResetWarning,0827.4,5.00,000.00,018.5,017.8,000.0,027.0,020.1,12.8,0000.0,0003.03,0001.61,0001.19
2024-03-28 05:28:00,SystemResetWarning,0827.4,5.00,000.00,018.5,017.6,000.0,027.0,020.1,12.8,0000.0,0004.44,0001.62,0001.19
2024-03-28 05:29:00,SystemResetWarning,0827.4,5.00,000.00,018.4,017.6,000.0,027.0,020.0,12.7,0000.0,0004.57,0001.65,0001.20
2024-03-28 05:30:00,SystemResetWarning,0827.4,5.00,000.00,018.4,017.5,000.0,027.0,020.0,12.7,0000.0,0004.59,0001.66,0001.22
2024-03-28 05:31:00,SystemResetWarning,0827.3,5.01,000.00,018.4,017.5,000.0,027.0,020.0,13.0,0000.0,0004.57,0001.66,0001.22
2024-03-28 05:32:00,SystemResetWarning,0827.4,5.01,000.00,018.4,017.5,000.0,027.0,020.0,13.0,0000.0,0004.51,0001.66,0001.23
2024-03-28 05:33:00,SystemResetWarning,0827.4,4.99,000.00,018.4,017.5,000.0,027.0,020.0,12.8,0000.0,0004.42,0001.70,0001.25
2024-03-28 05:34:00,SystemResetWarning,0827.4,5.00,000.00,018.3,017.5,000.0,027.0,020.0,12.6,0000.0,0004.70,0001.79,0001.27
2024-03-28 05:35:00,SystemResetWarning,0827.4,4.99,000.00,018.3,017.5,000.0,027.0,020.0,12.8,0000.0,0004.81,0001.82,0001.27
2024-03-28 05:36:00,SystemResetWarning,0827.4,5.00,000.00,018.3,017.5,000.0,027.0,020.0,12.9,0000.0,0004.87,0001.84,0001.28
2024-03-28 05:37:00,SystemResetWarning,0827.3,5.01,000.00,018.3,017.5,000.0,027.0,020.0,13.0,0000.0,0004.89,0001.84,0001.29
2024-03-28 05:38:00,SystemResetWarning,0827.4,5.00,000.00,018.3,017.5,000.0,027.0,020.0,12.8,0000.0,0004.56,0001.83,0001.31
2024-03-28 05:39:00,SystemResetWarning,0827.3,4.99,000.00,018.3,017.5,000.0,027.0,020.0,12.8,0000.0,0003.16,0001.87,0001.32
2024-03-28 05:40:00,SystemResetWarning,0827.3,4.99,000.00,018.3,017.5,000.0,027.0,020.0,12.3,0000.0,0002.98,0001.92,0001.34
2024-03-28 05:41:00,SystemResetWarning,0827.3,4.99,000.00,018.3,017.5,000.0,027.0,020.0,12.3,0000.0,0003.07,0001.98,0001.35
2024-03-28 05:42:00,SystemResetWarning,0827.3,5.00,000.00,018.3,017.5,000.0,026.9,020.0,12.6,0000.0,0003.20,0002.04,0001.37
2024-03-28 05:43:00,SystemResetWarning,0827.3,5.01,000.00,018.3,017.5,000.0,026.9,020.0,12.5,0000.0,0003.26,0002.06,0001.38
2024-03-28 05:44:00,SystemResetWarning,0827.3,5.01,000.00,018.3,017.5,000.0,026.9,020.0,12.6,0000.0,0003.28,0002.04,0001.38
2024-03-28 05:45:00,SystemResetWarning,0827.2,5.00,000.00,018.3,017.5,000.0,026.9,020.0,12.5,0000.0,0003.83,0002.00,0001.38
2024-03-28 05:46:00,SystemResetWarning,0827.3,4.99,000.00,018.3,017.4,000.0,026.9,020.0,12.7,0000.0,0003.66,0001.97,0001.39
2024-03-28 05:47:00,SystemResetWarning,0827.2,4.99,000.00,018.3,017.4,000.0,026.9,020.0,12.7,0000.0,0003.75,0002.00,0001.40
2024-03-28 05:48:00,SystemResetWarning,0827.2,5.01,000.00,018.3,017.4,000.0,026.9,020.0,12.8,0000.0,0003.71,0002.01,0001.42
2024-03-28 05:49:00,SystemResetWarning,0827.2,5.01,000.00,018.3,017.4,000.0,026.9,020.0,12.9,0000.0,0003.64,0001.98,0001.42
2024-03-28 05:50:00,SystemResetWarning,0827.2,5.00,000.00,018.3,017.4,000.0,026.9,020.0,12.7,0000.0,0003.60,0001.96,0001.42
2024-03-28 05:51:00,SystemResetWarning,0827.2,4.99,000.00,018.3,017.4,000.0,026.9,020.0,12.5,0000.0,0003.76,0001.98,0001.42
2024-03-28 05:52:00,SystemResetWarning,0827.2,4.99,000.00,018.3,017.4,000.0,026.9,020.0,12.6,0000.0,0003.74,0001.96,0001.41
2024-03-28 05:53:00,SystemResetWarning,0827.2,5.01,000.00,018.3,017.4,000.0,026.9,020.0,12.7,0000.0,0003.60,0001.89,0001.40
2024-03-28 05:54:00,SystemResetWarning,0827.2,5.00,000.00,018.3,017.4,000.0,026.9,020.0,12.4,0000.0,0003.57,0001.89,0001.40
2024-03-28 05:55:00,SystemResetWarning,0827.1,5.00,000.00,018.2,017.4,000.0,026.9,020.0,12.7,0000.0,0003.54,0001.89,0001.40
2024-03-28 05:56:00,SystemResetWarning,0827.2,5.01,000.00,018.2,017.4,000.0,026.9,020.0,12.8,0000.0,0002.84,0001.89,0001.41
2024-03-28 05:57:00,SystemResetWarning,0827.2,5.01,000.00,018.2,017.4,000.0,026.9,020.0,12.7,0000.0,0002.89,0001.92,0001.42
2024-03-28 05:58:00,SystemResetWarning,0827.2,5.00,000.00,018.2,017.4,000.0,026.9,020.0,12.6,0000.0,0002.76,0001.89,0001.41
2024-03-28 05:59:00,SystemResetWarning,0827.2,5.01,000.00,018.2,017.4,000.0,026.9,020.0,12.8,0000.0,0002.80,0001.89,0001.39
